Location: Fort Wayne
(41.1310°N, 85.1290°W)
Time: 04:12:53
(UTC-04:00)

Courier 1B Rocket - All Passes

Search period start: 18 April 2014 00:00
Search period end: 28 April 2014 00:00
Orbit: 921 x 1202 km, 28.2° (Epoch: 17 April)

Date Brightness Start Highest point End Pass type
(mag) Time Alt. Az. Time Alt. Az. Time Alt. Az.
18 Apr - 08:59:11 10° SSW 09:03:01 16° SSE 09:06:45 10° SE daylight
18 Apr - 10:50:31 10° SW 10:55:31 24° S 11:00:24 10° ESE daylight
18 Apr - 12:43:24 10° WSW 12:48:02 22° S 12:52:40 10° SE daylight
18 Apr - 14:38:33 10° SW 14:40:25 11° SSW 14:42:17 10° S daylight
19 Apr - 07:59:36 10° S 08:02:23 13° SSE 08:05:06 10° SE daylight
19 Apr - 09:49:56 10° SW 09:54:52 23° S 09:59:39 10° ESE daylight
19 Apr - 11:42:28 10° WSW 11:47:25 24° S 11:52:16 10° SE daylight
19 Apr - 13:36:27 10° SW 13:39:50 15° SSW 13:43:14 10° SSE daylight
20 Apr - 08:49:28 10° SSW 08:54:12 20° SSE 08:58:45 10° ESE daylight
20 Apr - 10:41:37 10° SW 10:46:46 25° S 10:51:46 10° SE daylight
20 Apr - 12:35:03 10° WSW 12:39:15 19° SSW 12:43:25 10° SSE daylight
21 Apr - 07:49:14 10° SSW 07:53:31 18° SSE 07:57:40 10° ESE daylight
21 Apr - 09:40:49 10° SW 09:46:06 25° S 09:51:10 10° ESE daylight
21 Apr - 11:33:53 10° WSW 11:38:39 22° S 11:43:18 10° SE daylight
21 Apr - 13:29:26 10° SW 13:30:59 11° SSW 13:32:32 10° S daylight
22 Apr - 06:49:23 10° S 06:52:50 14° SSE 06:56:11 10° SE daylight
22 Apr - 08:40:07 10° SW 08:45:24 24° S 08:50:27 10° ESE daylight
22 Apr - 10:32:50 10° WSW 10:38:00 25° S 10:42:59 10° SE daylight
22 Apr - 12:27:01 10° SW 12:30:25 15° SSW 12:33:47 10° SSE daylight
23 Apr - 05:50:44 10° SSE 05:52:08 11° SSE 05:53:31 10° SE visible
23 Apr - 07:39:32 10° SW 07:44:41 22° SSE 07:49:36 10° ESE daylight
23 Apr - 09:31:52 10° SW 09:37:19 26° S 09:42:32 10° SE daylight
23 Apr - 11:25:28 10° WSW 11:29:50 19° SSW 11:34:05 10° SSE daylight
24 Apr - 06:39:09 10° SSW 06:43:57 19° SSE 06:48:32 10° ESE daylight
24 Apr - 08:30:58 10° SW 08:36:36 27° S 08:41:57 10° ESE daylight
24 Apr - 10:24:11 10° WSW 10:29:13 23° SSW 10:34:02 10° SE daylight
24 Apr - 12:19:55 10° SW 12:21:32 11° SSW 12:23:09 10° S daylight
25 Apr - 05:39:09 10° SSW 05:43:12 16° SSE 05:47:07 10° SE visible
25 Apr - 07:30:09 10° SW 07:35:51 26° S 07:41:15 10° ESE daylight
25 Apr - 09:23:02 10° WSW 09:28:32 26° S 09:33:45 10° SE daylight
25 Apr - 11:17:22 10° SW 11:20:59 15° SSW 11:24:30 10° SSE daylight
26 Apr - 04:39:57 10° S 04:42:27 12° SSE 04:44:54 10° SE visible
26 Apr - 06:29:29 10° SW 06:35:04 23° SSE 06:40:23 10° ESE daylight
26 Apr - 08:21:58 10° WSW 08:27:48 28° S 08:33:18 10° SE daylight
26 Apr - 10:15:42 10° WSW 10:20:22 20° SSW 10:24:51 10° SSE daylight
27 Apr - 05:29:03 10° SSW 05:34:16 20° SSE 05:39:18 10° ESE visible
27 Apr - 07:20:59 10° SW 07:27:01 28° S 07:32:43 10° ESE daylight
27 Apr - 09:14:20 10° WSW 09:19:42 24° SSW 09:24:48 10° SE daylight
27 Apr - 11:10:03 10° SW 11:12:03 11° SSW 11:14:01 10° S daylight
